TimeCST,TemperatureF,Dew PointF,Humidity,Sea Level PressureIn,VisibilityMPH,Wind Direction,Wind SpeedMPH,Gust SpeedMPH,PrecipitationIn,Events,Conditions,WindDirDegrees,DateUTC
12:34 AM,6.8,3.2,85,30.14,10.0,North,9.2,-,N/A,,Scattered Clouds,360,2013-02-07 06:34:00
12:53 AM,5.0,1.9,87,30.21,10.0,North,8.1,-,N/A,,Clear,350,2013-02-07 06:53:00
1:53 AM,3.0,-0.9,84,30.22,10.0,North,10.4,-,N/A,,Clear,350,2013-02-07 07:53:00
2:53 AM,1.0,-2.0,87,30.24,10.0,NNW,5.8,-,N/A,,Clear,340,2013-02-07 08:53:00
3:53 AM,-0.0,-4.0,83,30.23,10.0,North,9.2,-,N/A,,Clear,350,2013-02-07 09:53:00
4:53 AM,-2.9,-6.0,87,30.26,10.0,NNW,10.4,-,N/A,,Clear,330,2013-02-07 10:53:00
5:53 AM,-0.9,-5.1,83,30.27,10.0,North,11.5,-,N/A,,Clear,350,2013-02-07 11:53:00
6:41 AM,-2.2,-5.8,85,30.22,10.0,North,9.2,-,N/A,,Scattered Clouds,350,2013-02-07 12:41:00
6:53 AM,-2.0,-5.1,87,30.29,10.0,North,9.2,-,N/A,,Mostly Cloudy,350,2013-02-07 12:53:00
7:53 AM,-2.0,-6.0,83,30.31,10.0,North,5.8,-,N/A,,Overcast,360,2013-02-07 13:53:00
8:31 AM,-2.2,-5.8,85,30.25,10.0,NNW,5.8,-,N/A,,Mostly Cloudy,340,2013-02-07 14:31:00
8:53 AM,-2.9,-7.1,82,30.33,10.0,NNW,4.6,-,N/A,,Scattered Clouds,330,2013-02-07 14:53:00
9:53 AM,1.0,-4.0,79,30.34,10.0,North,6.9,-,N/A,,Mostly Cloudy,360,2013-02-07 15:53:00
10:19 AM,1.4,-2.2,85,30.27,10.0,North,4.6,-,N/A,,Mostly Cloudy,350,2013-02-07 16:19:00
10:53 AM,3.0,-0.9,84,30.33,10.0,North,4.6,-,N/A,,Mostly Cloudy,360,2013-02-07 16:53:00
11:53 AM,5.0,1.0,84,30.36,10.0,NW,3.5,-,N/A,,Overcast,320,2013-02-07 17:53:00
12:53 PM,7.0,1.0,77,30.35,10.0,NW,5.8,-,0.00,Snow,Light Snow,320,2013-02-07 18:53:00
1:53 PM,9.0,3.0,77,30.34,9.0,North,5.8,-,0.00,Snow,Light Snow,360,2013-02-07 19:53:00
2:53 PM,10.0,5.0,80,30.33,9.0,North,4.6,-,0.00,Snow,Light Snow,350,2013-02-07 20:53:00
3:53 PM,10.0,5.0,80,30.33,9.0,North,5.8,-,0.00,Snow,Light Snow,350,2013-02-07 21:53:00
4:08 PM,10.4,5.0,79,30.25,9.0,NNW,5.8,-,0.00,Snow,Light Snow,340,2013-02-07 22:08:00
4:53 PM,10.0,6.1,84,30.33,9.0,NNW,4.6,-,0.00,Snow,Light Snow,340,2013-02-07 22:53:00
5:19 PM,8.6,6.8,92,30.26,9.0,NNW,5.8,-,0.00,,Overcast,340,2013-02-07 23:19:00
5:53 PM,8.1,6.1,92,30.32,10.0,North,3.5,-,0.00,,Overcast,10,2013-02-07 23:53:00
6:37 PM,8.6,5.0,85,30.27,10.0,NNW,3.5,-,N/A,,Overcast,330,2013-02-08 00:37:00
6:53 PM,8.1,5.0,87,30.34,10.0,Calm,Calm,-,N/A,,Overcast,0,2013-02-08 00:53:00
7:53 PM,8.1,5.0,87,30.35,10.0,NNE,3.5,-,N/A,,Overcast,30,2013-02-08 01:53:00
8:53 PM,9.0,5.0,84,30.35,10.0,Calm,Calm,-,N/A,,Overcast,0,2013-02-08 02:53:00
9:53 PM,9.0,5.0,84,30.35,10.0,Calm,Calm,-,N/A,,Overcast,0,2013-02-08 03:53:00
10:31 PM,8.6,6.8,92,30.27,8.0,SE,4.6,-,N/A,,Overcast,130,2013-02-08 04:31:00
10:53 PM,9.0,7.0,92,30.34,8.0,SE,5.8,-,N/A,,Overcast,140,2013-02-08 04:53:00
11:42 PM,10.4,8.6,92,30.27,1.8,South,3.5,-,N/A,,Overcast,180,2013-02-08 05:42:00
11:53 PM,10.0,8.1,92,30.35,0.8,South,4.6,-,N/A,,Overcast,190,2013-02-08 05:53:00